This demonstration page uses our WeatherBlox Daily Observations layout. Learn more.

36.17497, -115.13722

Hourly Observations for August 14, 2018

Temp ( °F °C ) Dew Point ( °F °C ) Humidity (%) Winds ( mph kmh ) Pressure ( in mb ) Visibility ( mi km ) Precip ( " mm )
12:53 am 00:53 Clear 90 32.2 41 5 18 18 NNE 6 9 29.78 1008 10 16.0934 0 0
1:53 am 01:53 Clear 89 31.7 41 5 19 19 N 10 17 29.76 1008 10 16.0934 0 0
2:53 am 02:53 Clear 87 30.6 41 5 20 20 W 7 11 29.76 1008 10 16.0934 0 0
3:53 am 03:53 Clear 87 30.6 41 5 20 20 N 3 6 29.77 1008 10 16.0934 0 0
4:53 am 04:53 Clear 85 29.4 43 6.1 23 23 NNW 6 9 29.78 1008 10 16.0934 0 0
5:53 am 05:53 Clear 83 28.3 43 6.1 24 24 NW 7 11 29.78 1009 10 16.0934 0 0
6:53 am 06:53 Sunny 85 29.4 45 7.2 25 25 Calm 29.8 1009 10 16.0934 0 0
7:53 am 07:53 Sunny 88 31.1 47 8.3 24 24 Calm 29.82 1010 10 16.0934 0 0
8:53 am 08:53 Sunny 91 32.8 54 12.2 28 28 VRB 3 6 29.83 1010 10 16.0934 0 0
9:53 am 09:53 Sunny 94 34.4 53 11.7 25 25 VRB 3 6 29.83 1010 10 16.0934 0 0
10:53 am 10:53 Sunny 97 36.1 50 10 20 20 ESE 3 6 29.83 1010 10 16.0934 0 0
11:53 am 11:53 Sunny 99 37.2 47 8.3 17 17 SSE 8 13 29.81 1010 10 16.0934 0 0
12:53 pm 12:53 Sunny 101 38.3 44 6.7 14 14 VRB 7 11 29.79 1009 10 16.0934 0 0
1:53 pm 13:53 Sunny 104 40 44 6.7 13 13 S 12 19 29.75 1008 10 16.0934 0 0
2:53 pm 14:53 Sunny 106 41.1 44 6.7 12 12 SSE 14 22 29.73 1007 10 16.0934 0 0
3:53 pm 15:53 Sunny 104 40 46 7.8 14 14 SSE 15 24 29.71 1006 10 16.0934 0 0
4:53 pm 16:53 Sunny 103 39.4 48 8.9 16 16 SSE 15 24 29.71 1006 10 16.0934 0 0
5:53 pm 17:53 Sunny 103 39.4 45 7.2 14 14 SSE 14 22 29.69 1006 10 16.0934 0 0
6:53 pm 18:53 Sunny 102 38.9 44 6.7 14 14 S 9 15 29.69 1005 10 16.0934 0 0
7:53 pm 19:53 Clear 101 38.3 44 6.7 14 14 S 10 17 29.7 1006 10 16.0934 0 0
8:53 pm 20:53 Clear 99 37.2 44 6.7 15 15 SW 7 11 29.72 1007 10 16.0934 0 0
9:53 pm 21:53 Clear 96 35.6 45 7.2 17 17 S 7 11 29.75 1007 10 16.0934 0 0
10:53 pm 22:53 Clear 93 33.9 45 7.2 19 19 SSE 5 7 29.76 1008 10 16.0934 0 0
11:53 pm 23:53 Clear 92 33.3 45 7.2 20 20 SE 9 15 29.77 1008 10 16.0934 0 0

Powered by AerisWeather